Weather History for KISN - February, 2014

Change the Weather History Date:

Wednesday, February 5, 2014

  Actual Average Record
Temperature  
Mean Temperature -3 °F 14 °F  
Max Temperature 1 °F 25 °F 55 °F (1963)
Min Temperature -7 °F 3 °F -35 °F (1907)
Degree Days  
Heating Degree Days 68 51  
Month to date heating degree days 308 258  
Since 1 July heating degree days 5707 5679  
Cooling Degree Days 0 0  
Month to date cooling degree days 0 0  
Year to date cooling degree days 0 0  
Moisture  
Dew Point -12 °F    
Average Humidity 67    
Maximum Humidity 75    
Minimum Humidity 58    
Precipitation  
Precipitation 0.01 in 0.01 in 0.37 in (1938)
Month to date precipitation 0.01 0.06  
Year to date precipitation 0.19 0.65  
Sea Level Pressure  
Sea Level Pressure 30.75 in    
Wind  
Wind Speed 10 mph (WNW)    
Max Wind Speed 18 mph    
Max Gust Speed 23 mph    
Visibility 9 miles    
Events Snow    
T = Trace of Precipitation, MM = Missing Value Source: NWS Daily Summary

Daily Weather History Graph

Daily Weather History Graph

Search for Another Location

Airport or City:

Trip Planner

Search our weather history database for the weather conditions in past years. The results will help you decide how hot, cold, wet, or windy it might be!

Date:

Astronomy

Feb. 05, 2014 Rise Set
Actual Time 8:16 AM CST 6:00 PM CST
Civil Twilight 7:44 AM CST 6:33 PM CST
Nautical Twilight 7:06 AM CST 7:10 PM CST
Astronomical Twilight 6:30 AM CST 7:47 PM CST
Moon 11:00 AM CST (2/5) 12:27 AM CST (2/5)
Length of Visible Light 10h 49m
Length of Day
9h 43m
Waxing Crescent, 39% of the Moon is Illuminated
Feb 5
Waxing Crescent
Feb 6
First Quarter
Feb 14
Full
Feb 22
Last Quarter
Mar 1
New

Hourly Weather History & Observations

Time (CST) Temp. Windchill Dew Point Humidity Pressure Visibility Wind Dir Wind Speed Gust Speed Precip Events Conditions
12:52 AM -6.0 °F -18.6 °F -13.0 °F 72% 30.82 in 10.0 mi NW 5.8 mph - N/A   Mostly Cloudy
1:52 AM -6.0 °F -21.5 °F -13.0 °F 72% 30.82 in 10.0 mi WNW 8.1 mph - N/A   Overcast
2:52 AM -2.9 °F -15.0 °F -11.0 °F 68% 30.83 in 10.0 mi NNW 5.8 mph - N/A   Overcast
3:52 AM -2.9 °F -16.5 °F -11.0 °F 68% 30.83 in 8.0 mi NW 6.9 mph - 0.00 in Snow Light Snow
4:52 AM -5.1 °F -19.1 °F -11.9 °F 72% 30.84 in 10.0 mi NW 6.9 mph - 0.00 in   Mostly Cloudy
5:52 AM -7.1 °F -21.4 °F -13.0 °F 75% 30.85 in 9.0 mi WNW 6.9 mph - 0.00 in   Scattered Clouds
6:52 AM -6.0 °F -21.5 °F -11.9 °F 75% 30.84 in 4.0 mi West 8.1 mph - 0.00 in Snow Light Snow
7:04 AM -6.0 °F -20.1 °F -11.9 °F 75% 30.66 in 3.0 mi West 6.9 mph - 0.00 in Snow Light Snow
7:18 AM -7.1 °F -21.4 °F -13.0 °F 75% 30.66 in 4.0 mi West 6.9 mph - 0.01 in Snow Light Snow
7:23 AM -7.1 °F -22.8 °F -13.0 °F 75% 30.66 in 4.0 mi West 8.1 mph - 0.01 in Snow Light Snow
7:39 AM -7.1 °F -21.4 °F -13.0 °F 75% 30.65 in 8.0 mi West 6.9 mph - 0.01 in Snow Light Snow
7:52 AM -7.1 °F -21.4 °F -13.0 °F 75% 30.84 in 10.0 mi West 6.9 mph - 0.01 in   Overcast
8:52 AM -5.1 °F -20.4 °F -11.9 °F 72% 30.85 in 8.0 mi West 8.1 mph - N/A   Overcast
9:52 AM -4.0 °F -22.1 °F -11.0 °F 72% 30.87 in 8.0 mi NW 11.5 mph - N/A   Overcast
10:52 AM -2.9 °F -22.4 °F -13.0 °F 62% 30.87 in 10.0 mi NW 13.8 mph - N/A   Mostly Cloudy
11:45 AM -2.0 °F -21.9 °F -11.9 °F 63% 30.67 in 10.0 mi NW 15.0 mph - N/A   Mostly Cloudy
11:52 AM -0.9 °F -19.9 °F -11.9 °F 60% 30.85 in 10.0 mi NW 13.8 mph - N/A   Mostly Cloudy
11:58 AM -0.9 °F -19.9 °F -11.9 °F 60% 30.67 in 10.0 mi NNW 13.8 mph - N/A   Scattered Clouds
12:04 PM -0.9 °F -19.1 °F -11.9 °F 60% 30.66 in 10.0 mi NW 12.7 mph - N/A   Mostly Cloudy
12:39 PM -0.0 °F -16.3 °F -11.9 °F 57% 30.65 in 10.0 mi NW 10.4 mph 21.9 mph N/A   Scattered Clouds
12:52 PM -0.0 °F -16.3 °F -11.0 °F 60% 30.84 in 10.0 mi NW 10.4 mph - N/A   Mostly Cloudy
1:06 PM -0.0 °F -18.0 °F -11.9 °F 57% 30.65 in 10.0 mi NW 12.7 mph - N/A   Scattered Clouds
1:45 PM -0.9 °F -19.1 °F -11.9 °F 60% 30.63 in 10.0 mi NW 12.7 mph - N/A   Mostly Cloudy
1:52 PM -0.0 °F -18.0 °F -11.9 °F 57% 30.82 in 10.0 mi NW 12.7 mph - N/A   Mostly Cloudy
2:29 PM -0.0 °F -18.0 °F -11.9 °F 57% 30.62 in 10.0 mi NW 12.7 mph - N/A   Scattered Clouds
2:52 PM -0.0 °F -18.0 °F -11.0 °F 60% 30.79 in 10.0 mi WNW 12.7 mph - N/A   Scattered Clouds
3:08 PM -0.0 °F -19.4 °F -11.0 °F 60% 30.61 in 10.0 mi WNW 15.0 mph 21.9 mph N/A   Mostly Cloudy
3:52 PM -0.9 °F -20.6 °F -11.9 °F 60% 30.79 in 10.0 mi NW 15.0 mph - N/A   Overcast
4:39 PM -0.9 °F -20.6 °F -13.0 °F 57% 30.61 in 10.0 mi NW 15.0 mph - N/A   Scattered Clouds
4:52 PM -2.0 °F -22.6 °F -13.0 °F 60% 30.79 in 10.0 mi NW 16.1 mph - N/A   Clear
5:52 PM -4.0 °F -20.2 °F -13.0 °F 65% 30.79 in 10.0 mi NW 9.2 mph - N/A   Scattered Clouds
6:27 PM -5.1 °F -15.8 °F -13.0 °F 69% 30.59 in 10.0 mi West 4.6 mph - N/A   Mostly Cloudy
6:52 PM -4.0 °F -14.6 °F -11.9 °F 69% 30.77 in 10.0 mi West 4.6 mph - N/A   Overcast
7:52 PM -2.9 °F -13.3 °F -11.0 °F 68% 30.76 in 10.0 mi West 4.6 mph - N/A   Overcast
8:52 PM -2.0 °F -18.7 °F -9.9 °F 69% 30.74 in 10.0 mi NW 10.4 mph - N/A   Overcast
9:52 PM -2.9 °F -20.8 °F -9.9 °F 72% 30.74 in 10.0 mi NW 11.5 mph - N/A   Overcast
10:52 PM -2.9 °F -18.8 °F -9.9 °F 72% 30.72 in 10.0 mi West 9.2 mph - N/A   Mostly Cloudy
11:52 PM -5.1 °F -21.5 °F -11.0 °F 76% 30.70 in 10.0 mi WNW 9.2 mph - N/A   Mostly Cloudy